Regional Weather Roundup
Issued by NWS

Home | Current Version | Previous Version | Text Only | Print | Product List | Glossary Off
Versions: 1 2 3 4 5 6 7 8 9 10 11 12 13 14 15 16 17 18 19 20 21 22 23 24 25 26 27 28 29 30 31 32 33 34 35 36 37 38 39 40 41 42 43 44 45 46 47 48 49 50

000
ASUS45 KABQ 260501
RWRNM
NEW MEXICO REGIONAL WEATHER ROUNDUP
NATIONAL WEATHER SERVICE ALBUQUERQUE NM
1100 PM MDT SUN JUN 25 2017

NOTE: "FAIR" MEANS FEW OR NO CLOUDS BELOW 12,000 FEET AGL WITH NO
       SIGNIFICANT WEATHER OR OBSTRUCTIONS TO VISION.

      THIS PRODUCT IS RELEASED AS TWO VERSIONS.  ONE VERSION NEAR
      THE TOP OF THE HOUR CONTAINING PRELIMINARY DATA FROM ALBUQUERQUE
      AND OTHER STATIONS.  A FINAL VERSION WITH ADDITIONAL DATA IS
      ISSUED ABOUT 10 MINUTES AFTER THE HOUR.

NMZ501-503-504-510>518-260600-
NORTHWEST PLATEAU/NORTHCENTRAL MOUNTAINS

CITY           SKY/WX    TMP DP  RH WIND       PRES   REMARKS
FARMINGTON     FAIR      77  42  28 SW16G24   30.13R
LOS ALAMOS     FAIR      60  48  64 S15       30.40S
SANTA FE       FAIR      64  52  64 S9        30.36R
TAOS           MOCLDY    63  46  55 SE9       30.40R
ANGEL FIRE     FAIR      50  49  94 CALM      30.51R

$$
NMZ402-403-502-505>509-260600-
WESTCENTRAL MOUNTAINS/SOUTHWEST MOUNTAINS

CITY           SKY/WX    TMP DP  RH WIND       PRES   REMARKS
GALLUP         FAIR      68  45  43 S13       30.31R
GRANTS         FAIR      63  48  57 S3        30.34S
SILVER CITY    MOCLDY    67  57  72 SE31G38   30.31F

$$
NMZ407-409-411-412-260600-
SOUTHERN DESERTS

CITY           SKY/WX    TMP DP  RH WIND       PRES   REMARKS
DEMING         FAIR      75  56  51 E8        30.22R
LAS CRUCES     LGT RAIN  69  63  81 CALM      30.26F
HOLLOMAN AFB   FAIR      70  63  78 S8        30.25F
ALAMOGORDO     FAIR      66  61  82 SW8       30.26F
T OR C         LGT RAIN  71  59  65 SE9       30.27R

$$
NMZ519>523-260600-
CENTRAL VALLEYS/CENTRAL HIGHLANDS

CITY           SKY/WX    TMP DP  RH WIND       PRES   REMARKS
ALBUQUERQUE    MOCLDY    70  47  43 SE6       30.27S
DOUBLE EAGLE   FAIR      65  51  60 SE6       30.31S
MORIARTY ARPT  FAIR      58  55  87 SE3       30.39S
CLINES CORNERS FAIR      54  51  90 E7        30.43R
BELEN          NOT AVBL
SOCORRO        FAIR      68  55  63 W10       30.26F

$$
NMZ524>526-539-540-260600-
SOUTHCENTRAL MOUNTAINS

CITY           SKY/WX    TMP DP  RH WIND       PRES   REMARKS
RUIDOSO        FAIR      55  55 100 E6        30.44F

$$
NMZ527>531-260600-
NORTHEAST HIGHLANDS/NORTHEAST PLAINS

CITY           SKY/WX    TMP DP  RH WIND       PRES   REMARKS
LAS VEGAS      FAIR      54  51  90 SW9       30.42R
RATON          MOCLDY    60  59  96 W6        30.37S
CLAYTON        FAIR      60  59  96 SW5       30.29R

$$
NMZ532>537-260600-
EASTCENTRAL PLAINS

CITY           SKY/WX    TMP DP  RH WIND       PRES   REMARKS
SANTA ROSA     FAIR      60  55  85 SE12      30.30F
TUCUMCARI      FAIR      64  61  90 E17       30.22F
CANNON AFB     LGT RAIN  63  63 100 W15       30.34S
CLOVIS AIRPORT LGT RAIN  63  60  90 NE13G23   30.36R

$$
NMZ028-029-538-260600-
SOUTHEAST PLAINS

CITY           SKY/WX    TMP DP  RH WIND       PRES   REMARKS
ROSWELL        LGT RAIN  65  61  87 NE14      30.24F
ARTESIA        FAIR      68  64  88 NE22G35   30.23R
CARLSBAD       CLOUDY    78  58  49 N30G41    30.21R
HOBBS          FAIR      75  59  57 SE14      30.21R


$$




USA.gov is the U.S. government's official web portal to all federal, state and local government web resources and services.